Starlink 30587

operational
NORAD ID: 58064 Int'l Des: 2023-158 Owner: SPXS Country: US Constellation: starlink
LEOCIRCULAR

About Starlink 30587

Description loading...

Live Position

Loading 3D Globe...

Upcoming Passes

Altitude History

Altitude vs Time

uPlot chart will show altitude changes over time

Two-Line Element Set

1 58064U 23158P 25305.85710002 -.00000616 00000-0 -30553-4 0 9995
2 58064 43.0032 4.7978 0001181 275.7803 84.2904 15.02530981114305
Epoch: Nov 1, 2025 • Age: 33 hours

Current Status

Altitude 564.2 km
Velocity 7.58 km/s
Sub-Earth Point -22.83°S, 79.85°E
Launch Date Oct 13, 2023
Age 2 years
Type internet

Technical Details

Classification Payload
Mass 730.00 kg
Dry Mass 700.00 kg
Total Mass 730.00 kg
Length 0.30 m
Diameter 4.10 m
Span 29.00 m
Shape Box + pan
Manufacturer SPXS
Bus Type Starlink V2M
Phase Status In Orbit
Owner/State SPXS/US

Large Constellations

Loading constellations...